TimeEDT,TemperatureF,Dew PointF,Humidity,Sea Level PressureIn,VisibilityMPH,Wind Direction,Wind SpeedMPH,Gust SpeedMPH,PrecipitationIn,Events,Conditions,WindDirDegrees,DateUTC
12:56 AM,64.8,60.1,85,30.13,12.0,North,4.6,-,N/A,,Clear,360,2013-09-07 04:56:00
1:56 AM,63.1,60.4,91,30.12,12.0,North,3.5,-,N/A,,Clear,10,2013-09-07 05:56:00
2:56 AM,62.2,60.1,93,30.12,12.0,North,3.5,-,N/A,,Clear,360,2013-09-07 06:56:00
3:56 AM,61.0,59.4,94,30.12,12.0,North,1.2,-,N/A,,Partly Cloudy,360,2013-09-07 07:56:00
4:56 AM,60.4,58.5,93,30.12,7.0,North,2.3,-,N/A,,Partly Cloudy,350,2013-09-07 08:56:00
5:56 AM,59.5,58.1,95,30.13,11.0,North,3.5,-,N/A,,Partly Cloudy,350,2013-09-07 09:56:00
6:56 AM,59.0,57.7,96,30.14,10.0,North,3.5,-,N/A,,Partly Cloudy,360,2013-09-07 10:56:00
7:56 AM,62.8,61.3,95,30.15,12.0,North,2.3,-,N/A,,Clear,360,2013-09-07 11:56:00
8:56 AM,68.9,59.9,73,30.15,12.0,NE,3.5,-,N/A,,Clear,50,2013-09-07 12:56:00
9:56 AM,73.2,61.9,68,30.14,12.0,SSE,4.6,-,N/A,,Clear,150,2013-09-07 13:56:00
10:56 AM,77.7,60.6,55,30.14,12.0,Variable,3.5,-,N/A,,Clear,0,2013-09-07 14:56:00
11:56 AM,79.9,57.4,46,30.12,12.0,NE,4.6,-,N/A,,Clear,40,2013-09-07 15:56:00
12:56 PM,82.0,54.7,39,30.10,12.0,Variable,5.8,-,N/A,,Clear,0,2013-09-07 16:56:00
1:56 PM,85.5,48.9,28,30.09,12.0,Variable,3.5,-,N/A,,Clear,0,2013-09-07 17:56:00
2:56 PM,86.0,55.2,35,30.05,12.0,North,9.2,-,N/A,,Clear,10,2013-09-07 18:56:00
3:56 PM,87.3,56.5,35,30.03,12.0,Variable,6.9,-,N/A,,Clear,0,2013-09-07 19:56:00
4:56 PM,84.9,56.7,38,30.02,12.0,NW,6.9,-,N/A,,Clear,310,2013-09-07 20:56:00
5:56 PM,84.9,59.9,43,30.02,12.0,NW,4.6,-,N/A,,Clear,310,2013-09-07 21:56:00
6:56 PM,82.2,60.4,48,30.00,12.0,WNW,4.6,-,N/A,,Clear,290,2013-09-07 22:56:00
7:56 PM,74.7,63.3,68,30.00,12.0,West,3.5,-,N/A,,Clear,260,2013-09-07 23:56:00
8:56 PM,70.0,63.3,79,30.02,12.0,NNW,2.3,-,N/A,,Clear,340,2013-09-08 00:56:00
9:56 PM,68.2,63.9,86,30.02,12.0,SE,2.3,-,N/A,,Clear,140,2013-09-08 01:56:00
10:56 PM,65.1,62.2,90,30.02,12.0,SSW,1.2,-,N/A,,Clear,200,2013-09-08 02:56:00
11:56 PM,64.9,62.2,91,30.02,12.0,South,1.2,-,N/A,,Clear,180,2013-09-08 03:56:00